Peru, IL

8:09 AM CDT on September 24, 2017 (GMT -0500)
Illinois Valley Regional-Duncan

Weather History for KVYS - January, 2015

Change the Weather History Date:

Saturday, January 10, 2015

  Actual Average Record
Temperature  
Mean Temperature 13 °F -  
Max Temperature 27 °F 27 °F 59 °F (1975)
Min Temperature -1 °F 9 °F -20 °F (1982)
Degree Days  
Heating Degree Days 52    
Moisture  
Dew Point 5 °F    
Average Humidity 69    
Maximum Humidity 83    
Minimum Humidity 53    
Precipitation  
Precipitation 0.00 in - - ()
Sea Level Pressure  
Sea Level Pressure 30.36 in    
Wind  
Wind Speed 11 mph (SSW)    
Max Wind Speed 22 mph    
Max Gust Speed 28 mph    
Visibility 10 miles    
Events      
Averages and records for this station are not official NWS values.
T = Trace of Precipitation, MM = Missing Value Source: NWS Daily Summary

Daily Weather History Graph

Daily Weather History Graph

Search for Another Location

Airport or City:

Trip Planner

Search our weather history database for the weather conditions in past years. The results will help you decide how hot, cold, wet, or windy it might be!

Date:

Astronomy

Jan. 10, 2015 Rise Set
Actual Time 7:22 AM CST 4:46 PM CST
Civil Twilight 6:51 AM CST 5:17 PM CST
Nautical Twilight 6:16 AM CST 5:51 PM CST
Astronomical Twilight 5:43 AM CST 6:24 PM CST
Moon 10:18 PM CST (1/10) 10:04 AM CST (1/10)
Length of Visible Light 10h 26m
Length of Day
9h 24m
Waning Gibbous, 74% of the Moon is Illuminated
Jan 10
Waning Gibbous
Jan 13
Last Quarter
Jan 20
New
Jan 26
First Quarter
Feb 3
Full

Hourly Weather History & Observations

Time (CST) Temp. Windchill Dew Point Humidity Pressure Visibility Wind Dir Wind Speed Gust Speed Precip Events Conditions
12:15 AM 2.3 °F -14.2 °F -4.0 °F 75% 30.47 in 10.0 mi West 11.5 mph - N/A   Clear
12:30 AM 2.7 °F -12.9 °F -3.8 °F 74% 30.47 in 10.0 mi West 10.4 mph - N/A   Clear
12:55 AM 2.3 °F -13.4 °F -4.0 °F 75% 30.47 in 10.0 mi WSW 10.4 mph - N/A   Clear
1:15 AM 2.1 °F -13.6 °F -4.0 °F 76% 30.47 in 10.0 mi WSW 10.4 mph - N/A   Clear
1:35 AM 1.9 °F -12.9 °F -4.0 °F 76% 30.47 in 10.0 mi WSW 9.2 mph - N/A   Clear
1:55 AM 1.8 °F -12.0 °F -4.0 °F 77% 30.47 in 10.0 mi WSW 8.1 mph - N/A   Clear
2:15 AM 1.0 °F -11.7 °F -4.5 °F 77% 30.47 in 10.0 mi WSW 6.9 mph - N/A   Clear
2:35 AM -0.0 °F -13.0 °F -5.3 °F 79% 30.46 in 10.0 mi SW 6.9 mph - N/A   Clear
2:55 AM -0.6 °F -16.0 °F -5.4 °F 80% 30.47 in 10.0 mi SW 9.2 mph - N/A   Clear
3:15 AM -0.9 °F -15.3 °F -5.8 °F 80% 30.46 in 10.0 mi SW 8.1 mph - N/A   Clear
3:35 AM -0.9 °F -14.1 °F -5.8 °F 80% 30.45 in 10.0 mi SW 6.9 mph - N/A   Clear
3:55 AM -1.8 °F -18.5 °F -6.5 °F 80% 30.46 in 10.0 mi WSW 10.4 mph - N/A   Clear
4:15 AM -0.4 °F -14.7 °F -4.9 °F 81% 30.44 in 10.0 mi WSW 8.1 mph - N/A   Clear
4:35 AM -0.4 °F -15.7 °F -5.1 °F 81% 30.44 in 10.0 mi SW 9.2 mph - N/A   Clear
4:55 AM -0.4 °F -15.7 °F -5.1 °F 81% 30.44 in 10.0 mi WSW 9.2 mph - N/A   Clear
5:10 AM -0.4 °F -14.7 °F -5.3 °F 80% 30.44 in 10.0 mi WSW 8.1 mph - N/A   Clear
5:35 AM -0.6 °F -14.9 °F -5.3 °F 81% 30.43 in 10.0 mi SW 8.1 mph - N/A   Clear
5:55 AM -0.9 °F -15.3 °F -5.3 °F 82% 30.42 in 10.0 mi SSW 8.1 mph - N/A   Clear
6:15 AM -0.9 °F -16.4 °F -5.4 °F 81% 30.43 in 10.0 mi SSW 9.2 mph - N/A   Clear
6:35 AM -0.6 °F -14.9 °F -4.9 °F 82% 30.43 in 10.0 mi SSW 8.1 mph - N/A   Clear
6:55 AM -0.4 °F -13.4 °F -4.9 °F 81% 30.43 in 10.0 mi SW 6.9 mph - N/A   Clear
7:15 AM -0.6 °F -12.2 °F -5.1 °F 81% 30.43 in 10.0 mi SSW 5.8 mph - N/A   Clear
7:35 AM -1.7 °F -14.9 °F -6.0 °F 82% 30.44 in 10.0 mi SSW 6.9 mph - N/A   Clear
7:55 AM -0.9 °F -14.1 °F -4.9 °F 83% 30.43 in 10.0 mi South 6.9 mph - N/A   Clear
8:15 AM 0.1 °F -12.8 °F -4.0 °F 83% 30.44 in 10.0 mi South 6.9 mph - N/A   Clear
8:35 AM 1.6 °F -11.0 °F -3.3 °F 80% 30.44 in 10.0 mi South 6.9 mph - N/A   Clear
8:50 AM 2.3 °F -8.8 °F -3.1 °F 78% 30.45 in 10.0 mi South 5.8 mph - N/A   Clear
9:15 AM 5.2 °F -7.9 °F -0.9 °F 76% 30.45 in 10.0 mi South 8.1 mph - N/A   Clear
9:35 AM 7.2 °F -5.4 °F 0.3 °F 74% 30.45 in 10.0 mi South 8.1 mph - N/A   Clear
9:50 AM 8.4 °F -3.9 °F 1.2 °F 73% 30.44 in 10.0 mi South 8.1 mph - N/A   Clear
10:15 AM 12.2 °F -2.5 °F 3.4 °F 68% 30.44 in 10.0 mi SSW 12.7 mph - N/A   Clear
10:35 AM 13.3 °F -1.1 °F 3.6 °F 65% 30.42 in 10.0 mi SSW 12.7 mph - N/A   Clear
10:55 AM 14.5 °F 1.9 °F 4.3 °F 64% 30.42 in 10.0 mi SSW 10.4 mph - N/A   Clear
11:15 AM 16.3 °F -0.4 °F 4.6 °F 60% 30.40 in 10.0 mi SW 19.6 mph - N/A   Clear
11:35 AM 17.2 °F 2.2 °F 4.8 °F 58% 30.39 in 10.0 mi SW 16.1 mph - N/A   Clear
11:55 AM 18.1 °F 4.4 °F 5.4 °F 57% 30.38 in 10.0 mi SSW 13.8 mph - N/A   Clear
12:15 PM 19.0 °F 6.8 °F 5.5 °F 56% 30.36 in 10.0 mi SSW 11.5 mph - N/A   Clear
12:35 PM 19.8 °F 6.5 °F 5.7 °F 55% 30.35 in 10.0 mi SSW 13.8 mph - N/A   Mostly Cloudy
12:55 PM 20.3 °F 7.7 °F 6.6 °F 56% 30.34 in 10.0 mi SSW 12.7 mph - N/A   Overcast
1:15 PM 21.2 °F 8.3 °F 6.6 °F 53% 30.32 in 10.0 mi SSW 13.8 mph - N/A   Overcast
1:30 PM 20.7 °F 6.6 °F 6.6 °F 55% 30.32 in 10.0 mi SSW 16.1 mph - N/A   Overcast
1:55 PM 20.8 °F 6.8 °F 9.3 °F 61% 30.31 in 10.0 mi South 16.1 mph - N/A   Overcast
2:15 PM 20.3 °F 7.7 °F 10.4 °F 66% 30.31 in 10.0 mi South 12.7 mph 18.4 mph N/A   Overcast
2:30 PM 20.7 °F 7.6 °F 10.9 °F 66% 30.31 in 10.0 mi South 13.8 mph - N/A   Overcast
2:55 PM 21.2 °F 7.3 °F 11.1 °F 65% 30.30 in 10.0 mi South 16.1 mph - N/A   Overcast
3:15 PM 21.7 °F 7.5 °F 12.0 °F 66% 30.29 in 10.0 mi South 17.3 mph - N/A   Overcast
3:35 PM 22.1 °F 7.6 °F 12.0 °F 65% 30.27 in 10.0 mi South 18.4 mph 23.0 mph N/A   Overcast
3:55 PM 22.1 °F 8.0 °F 12.4 °F 66% 30.27 in 10.0 mi South 17.3 mph 25.3 mph N/A   Overcast
4:15 PM 22.6 °F 8.7 °F 12.7 °F 66% 30.27 in 10.0 mi South 17.3 mph 23.0 mph N/A   Overcast
4:35 PM 22.6 °F 7.9 °F 12.2 °F 64% 30.25 in 10.0 mi South 19.6 mph - N/A   Overcast
4:55 PM 22.6 °F 7.1 °F 12.9 °F 66% 30.24 in 10.0 mi South 21.9 mph 27.6 mph N/A   Overcast
5:15 PM 23.0 °F 8.0 °F 13.5 °F 67% 30.23 in 10.0 mi South 20.7 mph - N/A   Overcast
5:35 PM 23.9 °F 8.8 °F 14.0 °F 66% 30.23 in 10.0 mi South 21.9 mph - N/A   Overcast
5:55 PM 24.6 °F 10.5 °F 14.7 °F 66% 30.23 in 10.0 mi South 19.6 mph 25.3 mph N/A   Overcast
6:15 PM 24.8 °F 11.5 °F 14.4 °F 65% 30.24 in 10.0 mi South 17.3 mph 25.3 mph N/A   Overcast
6:35 PM 25.2 °F 13.9 °F 14.5 °F 64% 30.25 in 10.0 mi South 12.7 mph - N/A   Overcast
6:55 PM 25.7 °F 13.5 °F 13.6 °F 60% 30.26 in 10.0 mi SSW 15.0 mph - N/A   Overcast
7:15 PM 26.1 °F 14.0 °F 13.1 °F 58% 30.26 in 10.0 mi SSW 15.0 mph - N/A   Overcast
7:35 PM 25.3 °F 14.1 °F 13.6 °F 61% 30.27 in 10.0 mi South 12.7 mph - N/A   Mostly Cloudy
7:55 PM 24.8 °F 15.3 °F 13.6 °F 63% 30.27 in 10.0 mi South 9.2 mph - N/A   Scattered Clouds
8:15 PM 24.8 °F 14.6 °F 14.4 °F 65% 30.28 in 10.0 mi South 10.4 mph - N/A   Mostly Cloudy
8:35 PM 25.7 °F 15.1 °F 14.4 °F 62% 30.28 in 10.0 mi SSW 11.5 mph - N/A   Overcast
8:55 PM 26.6 °F 15.2 °F 13.8 °F 59% 30.28 in 10.0 mi SSW 13.8 mph - N/A   Overcast
9:15 PM 27.1 °F 14.9 °F 13.6 °F 57% 30.27 in 10.0 mi SSW 16.1 mph - N/A   Overcast
9:35 PM 26.8 °F 14.5 °F 13.6 °F 58% 30.28 in 10.0 mi SSW 16.1 mph - N/A   Overcast
9:50 PM 26.6 °F 13.8 °F 13.6 °F 58% 30.27 in 10.0 mi SSW 17.3 mph - N/A   Overcast
10:15 PM 27.1 °F 14.9 °F 14.0 °F 58% 30.27 in 10.0 mi SSW 16.1 mph - N/A   Overcast
10:35 PM 27.1 °F 14.9 °F 14.0 °F 58% 30.26 in 10.0 mi SSW 16.1 mph - N/A   Overcast
10:55 PM 26.8 °F 14.9 °F 14.0 °F 59% 30.26 in 10.0 mi SSW 15.0 mph - N/A   Overcast
11:15 PM 26.2 °F 14.7 °F 14.0 °F 60% 30.25 in 10.0 mi South 13.8 mph - N/A   Mostly Cloudy
11:35 PM 25.7 °F 14.0 °F 13.6 °F 60% 30.25 in 10.0 mi SSW 13.8 mph - N/A   Clear
11:55 PM 24.4 °F 14.2 °F 13.6 °F 64% 30.25 in 10.0 mi South 10.4 mph - N/A   Clear